This is the latest recevied weather packets stored in our database for station/object S51UL-6. If no packets are shown the sender has not sent any weather packets the latest 10 day(s).
| Time | Temp. | Humidity | Pressure | Rain* | Wind** | Luminosity | Snow |
|---|---|---|---|---|---|---|---|
| 1778086691 | 18.89° C | 62% | 1009.3 hPa | 0 mm | - | - | - |
| 1778086391 | 18.89° C | 62% | 1009.3 hPa | 0 mm | - | - | - |
| 1778086091 | 19.44° C | 62% | 1009.3 hPa | 0 mm | - | - | - |
| 1778085791 | 19.44° C | 62% | 1009.4 hPa | 0 mm | - | - | - |
| 1778085492 | 19.44° C | 62% | 1009.5 hPa | 0 mm | - | - | - |
| 1778085193 | 19.44° C | 61% | 1009.5 hPa | 0 mm | - | - | - |
| 1778084292 | 18.89° C | 61% | 1009.7 hPa | 0 mm | - | - | - |
| 1778083992 | 18.89° C | 61% | 1009.7 hPa | 0 mm | - | - | - |
| 1778083692 | 18.89° C | 61% | 1009.5 hPa | 0 mm | - | - | - |
| 1778083392 | 18.89° C | 61% | 1009.8 hPa | 0 mm | - | - | - |
| 1778083092 | 19.44° C | 60% | 1009.8 hPa | 0 mm | - | - | - |
| 1778082793 | 19.44° C | 60% | 1009.6 hPa | 0 mm | - | - | - |
| 1778082492 | 19.44° C | 60% | 1009.7 hPa | 0 mm | - | - | - |
| 1778081892 | 19.44° C | 59% | 1009.8 hPa | 0 mm | - | - | - |
| 1778081592 | 20° C | 59% | 1009.7 hPa | 0 mm | - | - | - |
| 1778080993 | 20° C | 58% | 1009.8 hPa | 0 mm | - | - | - |
| 1778080395 | 20.56° C | 57% | 1010 hPa | 0 mm | - | - | - |
| 1778079793 | 20.56° C | 56% | 1009.9 hPa | 0 mm | - | - | - |
| 1778079193 | 21.11° C | 57% | 1010 hPa | 0 mm | - | - | - |
| 1778078593 | 21.11° C | 55% | 1009.9 hPa | 0 mm | - | - | - |
| 1778078293 | 21.11° C | 56% | 1009.9 hPa | 0 mm | - | - | - |
| 1778077993 | 21.67° C | 54% | 1009.9 hPa | 0 mm | - | - | - |
| 1778077693 | 21.67° C | 54% | 1010.1 hPa | 0 mm | - | - | - |
| 1778077093 | 22.22° C | 53% | 1010 hPa | 0 mm | - | - | - |
| 1778076794 | 22.22° C | 54% | 1010.1 hPa | 0 mm | - | - | - |
* Rain latest hour (hover to see other rain measurements)
** Current wind speed in m/s (hover to see current wind gust speed)